sat.trackr.live / text

‹ back to catalog

STARLINK-35991

NORAD 66861 · 2025-281P

PAYLOAD ACTIVE UNKNOWN

§ Identity

Operator
Country
US
Launch date
2025-12-02
Launch site
AFETR
Launch vehicle
Mass (kg)
RCS (m²)

Purposes: comms

External: N2YO · Heavens-Above · Gunter

§ Orbital elements

Epoch: 2026-09-19T06:20:48.784992Z

Period
94.27 min
Inclination
42.9995°
Eccentricity
0.0001223
Mean motion
15.27588003 rev/d
Perigee alt
482.2 km
Apogee alt
483.9 km
Semi-major
6,861.2 km
B*
4.3866e-4
RAAN
329.9712°
Arg perigee
260.3463°
Mean anomaly
99.7250°
Rev number
4,579

§ Raw data

STARLINK-359911 66861U 25281P   26262.26445353  .00011831  00000+0  43866-3 0  99982 66861  42.9995 329.9712 0001223 260.3463  99.7250 15.27588003 45798

JSON: /api/v1/satellites/66861 · /tle

For live sub-satellite position, see the globe view (requires WebGL).

§ Visibility from observer

Set your observer location to see the next 7 days of passes ≥ 10°. The values pass through the URL so the page stays shareable.

No JS? Fill the form by hand. The geolocation button needs JavaScript.